sat.trackr.live / text

‹ back to catalog

STARLINK-6263

NORAD 56549 · 2023-065AY

PAYLOAD ACTIVE UNKNOWN

§ Identity

Operator
Country
US
Launch date
2023-05-14
Launch site
AFETR
Launch vehicle
Mass (kg)
RCS (m²)

Purposes: comms

External: N2YO · Heavens-Above · Gunter

§ Orbital elements

Epoch: 2026-09-20T22:35:07.612512Z

Period
94.27 min
Inclination
43.0032°
Eccentricity
0.0000741
Mean motion
15.27577001 rev/d
Perigee alt
482.5 km
Apogee alt
483.6 km
Semi-major
6,861.2 km
B*
2.4516e-6
RAAN
200.8776°
Arg perigee
277.5943°
Mean anomaly
82.4824°
Rev number
18,633

§ Raw data

STARLINK-62631 56549U 23065AY  26263.94106033 -.00000194  00000+0  24516-5 0  99972 56549  43.0032 200.8776 0000741 277.5943  82.4824 15.27577001186336

JSON: /api/v1/satellites/56549 · /tle

For live sub-satellite position, see the globe view (requires WebGL).

§ Visibility from observer

Set your observer location to see the next 7 days of passes ≥ 10°. The values pass through the URL so the page stays shareable.

No JS? Fill the form by hand. The geolocation button needs JavaScript.